www.pogodaiklimat.ru

Погода и климат >> Архив погоды >> Россия >> Якутия >> Агаякан


ПОГОДА в Агаякане

  • Прогноз погоды в Агаякане
  • Монитор погоды в Агаякане
  • Климат города

АРХИВ ПОГОДЫ в Агаякане

Время (UTC), дата Ветер
(напр.,м/с)
 
Видим.   Явления Облачность Т
(С)
Тd
(С)
f
(%)
Тe
(С)
Тes
(С)
Комфортность P
(гПа)
Po
(гПа)
Тmin
(С)
Tmax
(С)
R
(мм)
R24
(мм)
S
(см)
03 9.07 штиль 0 50 км 4/0
[Cs]
+29.4 +14.0 39 +31 +47 жарко 1012.2 928.3
06 9.07 З 1 50 км 4/0
[Cs]
+33.6 +7.8 20 +32 +40 жарко 1010.2 927.4
09 9.07 штиль 0 50 км 6/0
[Ci fib]
+29.8 +10.4 30 +30 +32 жарко 1009.2 925.5 +34.0
12 9.07 штиль 0 50 км 8/0
[Ci fib]
+23.6 +14.1 55 +26 +26 жарко 1010.3 925.0
15 9.07 штиль 0 50 км 8/3 1000 м
[Sc Cs]
+15.2 +14.0 93 +15 +15 1012.4 924.6
18 9.07 штиль 0 50 км 8/3 1000 м
[Sc Cs]
+13.0 +12.1 94 +12 +13 1012.8 924.3
21 9.07 Ю 1 50 км 10/6 1000 м
[Sc diur, vesp Cs]
+16.3 +8.3 59 +17 +18 1012.7 925.0 +13.0
00 10.07 Ю 1 50 км 4/4 1000 м
[Sc diur, vesp]
+21.2 +12.0 56 +23 +30 комфорт 1009.9 923.9
03 10.07 штиль 0 50 км 8/8 600 м
[Cu Sc]
+20.2 +8.1 46 +21 +24 комфорт 1006.6 922.9
06 10.07 З 3 50 км 10/10 600 м
[Cb cap]
+27.4 +10.4 35 +28 +28 жарко 1005.8 921.8
09 10.07 штиль 0 50 км 10/10 1000 м
[Sc]
+25.8 +10.2 37 +24 +24 комфорт 1004.9 920.4 +29.5
12 10.07 ЮЗ 2 50 км 10/6 1000 м
[Sc Cs]
+23.8 +9.3 40 +25 +25 комфорт 1004.4 919.5
15 10.07 Ю 2 50 км 10/0
[Cs]
+20.2 +9.8 51 +22 +22 комфорт 1004.9 919.0
18 10.07 ЮЗ 2 50 км 10/0
[Ac trans Cs]
+15.1 +9.7 70 +15 +15 1005.6 918.2
21 10.07 Ю 2 50 км 10/8 1000 м
[Sc Cs]
+14.7 +11.3 80 +14 +15 1005.5 918.1 +14.4
00 11.07 Ю 1 50 км 10/4 1000 м
[Sc Cs]
+18.3 +12.4 68 +20 +25 1004.3 918.0
03 11.07 Ю 1 50 км 10/6 1000 м
[Sc Cs]
+19.6 +12.9 65 +22 +27 комфорт 1002.7 916.9
06 11.07 Ю 1 50 км 10/0
[Ac und]
+23.2 +12.8 52 +26 +29 жарко 1000.6 916.0
09 11.07 З 1 50 км 8/0
[Ac und]
+24.0 +12.1 47 +26 +27 жарко 999.4 915.1 +24.4
12 11.07 штиль 0 50 км 10/8 1000 м
[Sc Ac und]
+19.6 +16.1 80 +22 +22 комфорт 1000.5 915.0
15 11.07 штиль 0 50 км 10/10 1000 м
[Sc]
+15.0 +13.4 90 +15 +15 1002.6 915.5
18 11.07 штиль 0 50 км 10/10 1000 м
[Sc]
+13.8 +12.9 94 +13 +13 1002.6 915.2
21 11.07 ЮЗ 1 50 км 10/10 1000 м
[Sc]
+15.7 +11.2 75 +16 +16 1004.3 917.3 +13.8
00 12.07 Ю 2 50 км 6/0
[As trans]
+19.5 +12.2 63 +21 +28 комфорт 1003.1 919.2
03 12.07 штиль 0 50 км 10/6 600 м
[Cb calv Ci fib]
+24.4 +12.0 46 +26 +31 жарко 999.4 915.2
06 12.07 ЮЗ 2 50 км 10/10 600 м
[Cb cap]
+17.7 +11.7 68 +18 +18 1000.7 914.5
09 12.07 З 2 50 км 10/10 1000 м
[Sc]
+19.3 +8.6 50 +21 +21 комфорт 1000.9 915.1 +24.7 0.0
12 12.07 штиль 0 50 км 6/4 1000 м
[Sc Ci fib]
+15.8 +11.2 74 +16 +16 1001.6 914.8
15 12.07 штиль 0 50 км 3/3 1000 м
[Sc]
+9.9 +8.9 93 +9 +9 1003.6 914.8
18 12.07 штиль 0 50 км 10/4 1000 м
[Sc Ac trans]
+7.3 +6.6 95 +6 +6 1004.2 914.5
21 12.07 штиль 0 50 км 10/10 1000 м
[Sc]
+9.7 +9.1 96 +9 +9 1002.7 914.0 +7.0
00 13.07 штиль 0 50 км 10/10 1000 м
[Sc]
+12.5 +11.0 91 +12 +12 1003.8 915.9
03 13.07 штиль 0 50 км 10/10 1000 м
[Sc]
+14.8 +13.2 90 +14 +14 1003.6 916.4
06 13.07 Ю 1 50 км 10/10 1000 м
[Sc]
+18.6 +13.3 71 +20 +20 1001.6 915.6
09 13.07 Ю 1 50 км в посл. час дождь 10/10 1000 м
[Sc]
+17.0 +15.5 91 +18 +18 1002.0 915.6 +18.8 0.7
12 13.07 штиль 0 50 км в посл. час дождь 10/10 1000 м
[Sc]
+15.3 +14.8 97 +15 +15 1003.5 916.5
15 13.07 ЮЗ 1 50 км 10/10 1000 м
[Sc]
+12.9 +12.7 99 +13 +13 1003.8 916.1
18 13.07 штиль 0 50 км в посл. час дождь 10/10 1000 м
[Sc]
+12.5 +11.9 96 +12 +12 1004.2 916.3
21 13.07 штиль 0 50 км 10/10 1000 м
[Sc]
+12.7 +12.1 96 +12 +12 1005.1 917.1 +12.1 0.8
00 14.07 ЮВ 2 50 км 10/10 1000 м
[Sc]
+17.5 +13.6 78 +18 +18 1004.0 917.6
03 14.07 Ю 2 50 км 10/0 1000 м
[Ac und]
+19.1 +14.3 74 +21 +25 комфорт 1009.8 918.8
06 14.07 С 2 50 км 10/10 600 м
[Cu Sc]
+22.4 +13.6 57 +25 +25 комфорт 1002.9 917.4
09 14.07 штиль 0 20 км слабый дождь 10/10 1000 м
[Sc]
+17.1 +15.9 93 +17 +17 1003.5 917.1 +22.6 1
12 14.07 штиль 0 50 км {дождь} 10/4 1000 м
[Sc Ac und]
+16.1 +15.6 97 +16 +16 1004.5 917.7
15 14.07 штиль 0 50 км 10/0
[Ac und]
+12.0 +11.6 97 +11 +11 1007.6 919.2
18 14.07 З 1 50 км 8/0
[Ac und]
+11.9 +11.7 99 +12 +12 1008.1 919.6
21 14.07 штиль 0 50 км 8/0
[Ac und]
+11.4 +11.0 97 +11 +12 1008.0 919.4 +11.2 0.9
00 15.07 штиль 0 50 км 8/0
[Ac und]
+11.4 +11.0 97 +11 +16 1008.0 919.4 +11.2 0.9
03 15.07 В 1 50 км 8/0
[Ac lent]
+16.6 +13.8 84 +17 +23 1007.9 920.9
06 15.07 штиль 0 50 км 10/10 1000 м
[Sc]
+19.0 +17.0 88 +20 +20 1006.2 920.2
09 15.07 штиль 0 50 км {ливн. осадки} 8/8 1000 м
[Sc]
+20.4 +18.5 89 +24 +24 комфорт 1005.3 919.7 +21.0 0.9
12 15.07 ЮЗ 1 50 км {ливн. осадки} 8/8 1000 м
[Sc]
+19.0 +14.9 77 +21 +21 комфорт 1006.4 920.3
15 15.07 штиль 0 50 км 8/8 1000 м
[Sc]
+14.4 +12.0 85 +14 +14 1007.3 919.6
18 15.07 штиль 0 50 км 8/8 1000 м
[Sc]
+12.6 +11.3 92 +12 +12 1007.8 919.5
21 15.07 штиль 0 50 км 8/8 1000 м
[Sc]
+13.5 +12.0 91 +13 +14 1009.8 911.6 +12.6
00 16.07 штиль 0 50 км 10/10 1000 м
[Sc]
+18.5 +12.4 68 +19 +19 1007.1 920.6

 

Местоположение метеостанции Агаякан (Якутия, Россия): широта 63.33 долгота 141.70 высота над уровнем моря 777 м.

В архиве по умолчанию представлена погода в Агаякане за последнюю неделю. Архивные данные за месяц целиком и за предыдущие месяцы, начиная с января 2011 года, Вы можете получить, выбрав интересующий диапазон дат из раскрывающегося списка и нажав кнопку "Ввод!".


*Определитесь, кто Вы:
робот инопланетянин человек

Внимание! Время в таблицах - всемирное. Для получения местного времени необходимо прибавить поправку, которая в Агаякане равна 10 ч.

Смотрите также архив погоды в соседних городах и на ближайших метеорологических станциях:

Погода в Оймяконе (Якутия, Россия) (71 км)
Погода в Юртах (Якутия, Россия) (80 км)
Погода в Восточной (Якутия, Россия) (106 км)
Погода в Усть-Нере (Якутия, Россия) (150 км)
Погода в Делянкире (Якутия, Россия) (201 км)
Погода в Теплом Ключе (Якутия, Россия) (254 км)
Погода в Уеге (Хабаровский край, Россия) (295 км)
Погода в Томпо (Якутия, Россия) (299 км)
Погода в Сусумане (Магаданская область, Россия) (328 км)
Погода в Колымской (Магаданская область, Россия) (344 км)

Пояснения к столбцам:

Ветер - указаны скорость ветра в м/с - средняя за 10 мин, порывы в срок и между сроками (в фигурных скобках) и направление, откуда дует ветер: С - северный, СВ - северо-восточный, В - восточный, ЮВ - юго-восточный, Ю - южный, ЮЗ - юго-западный, З - западный, СЗ - северо-западный.
Видимость - горизонтальная дальность видимости в метрах или километрах. При видимости от 1 до 10 км при отсутствии осадков обычно наблюдается дымка, при ухудшении видимости до 1 км и менее - туман. В сухую погоду видимость может ухудшаться дымом, пылью или мглою.
Явления - указаны атмосферные явления, наблюдавшиеся в срок или в последний час перед сроком; фигурными скобками обозначены явления, наблюдавшиеся между сроками (за 1-3 часа до срока); квадратными скобками обозначены град или гололедные отложения с указанием их диаметра в мм.
Облачность - указаны через наклонную черту общая и нижняя облачность в баллах и высота нижней границы облаков в метрах; квадратными скобками обозначены формы облаков: Ci - перистые, Cs - перисто-слоистые, Cc - перисто-кучевые, Ac - высококучевые, As - высокослоистые, Sc - слоисто-кучевые, Ns - слоисто-дождевые, Cu - кучевые, Cb - кучево-дождевые. Подробнее классификацию облаков см. в Атласе облаков (PDF).
T - Температура воздуха - температура, измеренная на высоте 2 м над землей.
Td - Температура точки росы - температура, при понижении до которой содержащийся в воздухе водяной пар достигнет насыщения.
f - Относительная влажность воздуха - влажноcть воздуха, измеренная на высоте 2 м над землей.
Te - Эффективная температура - температура, которую ощущает одетый по сезону человек в тени. Характеристика душности погоды. При расчете учитывается влияние влажности воздуха и скорости ветра на теплоощущения человека.
Tes - Эффективная температура на солнце - температура, которую ощущает человек, с поправкой на солнечный нагрев. Характеристика знойности погоды. Зависит от высоты солнца над горизонтом, облачности и скорости ветра. Ночью, в пасмурную погоду, а также при ветре 12 м/с и более поправка равна нулю.
P - Атмосферное давление - приведенное к уровню моря атмосферное давление.
Po - Атмосферное давление - измеренное на уровне метеостанции атмосферное давление.
Tmin - Минимальная температура - минимум температуры воздуха на высоте 2 м над землей.
Tmax - Максимальная температура - максимум температуры воздуха на высоте 2 м над землей.
R - Количество осадков - Количество выпавших осадков за период времени, мм. При наведении курсора мыши на число - период времени, за который выпало указанное количество осадков.
R24 - Количество осадков - Количество выпавших осадков за 24 часа, мм.
S - Снежный покров - Высота снежного покрова, см. При наведении курсора мыши на число - состояние снежного покрова и степень покрытия местности в баллах.